Location: Newark
(47.5833°N, 8.1500°E)
Time: 23:08:57
(UTC+00:00)

Vanguard 1 - Pass Details

Date: 28 October 2020
Orbit: 650 x 3833 km, 34.2° (Epoch: 29 November)

Event Time Altitude Azimuth Distance (km) Brightness Sun altitude
Rises 11:37:32 0° 224° (SW) 7,323 15.3 28.8°
Reaches altitude 10° 11:42:30 10° 218° (SW) 6,572 15.4 28.7°
Maximum altitude 12:03:03 44° 155° (SSE) 4,639 14.6 28.0°
Drops below altitude 10° 12:21:34 10° 93° (E) 6,015 14.0 27.0°
Sets 12:25:49 0° 87° (E) 6,689 14.1 26.8°
